Great Bend, KS

12:05 AM CST on February 25, 2018 (GMT -0600)
Great Bend Municipal

Weather History for KGBD - January, 2013

Change the Weather History Date:

Friday, January 4, 2013

  Actual Average Record
Temperature  
Mean Temperature 20 °F -  
Max Temperature 33 °F 36 °F 45 °F (2018)
Min Temperature 6 °F 17 °F 6 °F (2015)
Degree Days  
Heating Degree Days 46    
Moisture  
Dew Point 13 °F    
Average Humidity 74    
Maximum Humidity 86    
Minimum Humidity 59    
Precipitation  
Precipitation 0.00 in - - ()
Sea Level Pressure  
Sea Level Pressure 30.24 in    
Wind  
Wind Speed 8 mph (SW)    
Max Wind Speed 14 mph    
Max Gust Speed -    
Visibility 10 miles    
Events      
Averages and records for this station are not official NWS values.
T = Trace of Precipitation, MM = Missing Value Source: NWS Daily Summary

Daily Weather History Graph

Daily Weather History Graph

Search for Another Location

Airport or City:

Trip Planner

Search our weather history database for the weather conditions in past years. The results will help you decide how hot, cold, wet, or windy it might be!

Date:

Astronomy

Jan. 04, 2013 Rise Set
Actual Time 7:52 AM CST 5:28 PM CST
Civil Twilight 7:23 AM CST 5:58 PM CST
Nautical Twilight 6:50 AM CST 6:31 PM CST
Astronomical Twilight 6:18 AM CST 7:03 PM CST
Moon No Moon Rise 11:42 AM CST (1/4)
Length of Visible Light 10h 34m
Length of Day
9h 35m
Waning Gibbous, 55% of the Moon is Illuminated
Jan 4
Waning Gibbous
Jan 4
Last Quarter
Jan 11
New
Jan 18
First Quarter
Jan 26
Full

Hourly Weather History & Observations

Time (CST) Temp. Windchill Dew Point Humidity Pressure Visibility Wind Dir Wind Speed Gust Speed Precip Events Conditions
12:15 AM 12.2 °F 0.7 °F 8.6 °F 85% 30.35 in 10.0 mi SSW 8.1 mph - N/A   Clear
12:35 AM 12.2 °F 2.9 °F 8.6 °F 85% 30.34 in 10.0 mi SSW 5.8 mph - N/A   Clear
12:55 AM 10.4 °F -1.5 °F 6.8 °F 85% 30.34 in 10.0 mi SW 8.1 mph - N/A   Clear
1:15 AM 10.4 °F 2.2 °F 5.0 °F 79% 30.33 in 10.0 mi SW 4.6 mph - N/A   Clear
1:35 AM 10.4 °F 2.2 °F 5.0 °F 79% 30.33 in 10.0 mi SW 4.6 mph - N/A   Clear
1:55 AM 12.2 °F 1.7 °F 6.8 °F 79% 30.33 in 10.0 mi SW 6.9 mph - N/A   Clear
2:15 AM 12.2 °F -0.2 °F 8.6 °F 85% 30.33 in 10.0 mi SW 9.2 mph - N/A   Clear
2:35 AM 12.2 °F 1.7 °F 8.6 °F 85% 30.32 in 10.0 mi SW 6.9 mph - N/A   Clear
2:55 AM 14.0 °F 2.0 °F 10.4 °F 86% 30.32 in 10.0 mi SW 9.2 mph - N/A   Clear
3:15 AM 14.0 °F 2.9 °F 10.4 °F 86% 30.32 in 10.0 mi SW 8.1 mph - N/A   Clear
3:35 AM 12.2 °F 0.7 °F 8.6 °F 85% 30.31 in 10.0 mi WSW 8.1 mph - N/A   Clear
3:55 AM 8.6 °F -1.3 °F 1.4 °F 73% 30.31 in 10.0 mi WSW 5.8 mph - N/A   Clear
4:15 AM 8.6 °F -2.6 °F 5.0 °F 85% 30.31 in 10.0 mi SW 6.9 mph - N/A   Clear
4:35 AM 8.6 °F -1.3 °F 3.2 °F 79% 30.30 in 10.0 mi SW 5.8 mph - N/A   Clear
4:55 AM 10.4 °F -1.5 °F 5.0 °F 79% 30.30 in 10.0 mi SW 8.1 mph - N/A   Clear
5:35 AM 8.6 °F -1.3 °F 3.2 °F 79% 30.28 in 10.0 mi WSW 5.8 mph - N/A   Clear
5:55 AM 6.8 °F -2.0 °F -0.4 °F 72% 30.27 in 10.0 mi WSW 4.6 mph - N/A   Clear
6:15 AM 8.6 °F -2.6 °F 3.2 °F 79% 30.27 in 10.0 mi West 6.9 mph - N/A   Clear
6:35 AM 6.8 °F -6.9 °F -0.4 °F 72% 30.28 in 10.0 mi South 9.2 mph - N/A   Clear
7:15 AM 8.6 °F -2.6 °F 3.2 °F 79% 30.28 in 10.0 mi SSW 6.9 mph - N/A   Clear
7:35 AM 6.8 °F -6.9 °F 1.4 °F 79% 30.29 in 10.0 mi SSW 9.2 mph - N/A   Clear
7:55 AM 8.6 °F -5.5 °F 3.2 °F 79% 30.29 in 10.0 mi SSW 10.4 mph - N/A   Clear
8:15 AM 8.6 °F -4.7 °F 3.2 °F 79% 30.29 in 10.0 mi SW 9.2 mph - N/A   Clear
8:35 AM 8.6 °F -3.7 °F 3.2 °F 79% 30.29 in 10.0 mi SW 8.1 mph - N/A   Clear
8:55 AM 8.6 °F -2.6 °F 3.2 °F 79% 30.29 in 10.0 mi WSW 6.9 mph - N/A   Clear
9:15 AM 8.6 °F -3.7 °F 5.0 °F 85% 30.29 in 10.0 mi SW 8.1 mph - N/A   Clear
9:35 AM 10.4 °F 0.8 °F 6.8 °F 85% 30.30 in 10.0 mi WSW 5.8 mph - N/A   Clear
9:55 AM 12.2 °F -0.2 °F 8.6 °F 85% 30.30 in 10.0 mi SW 9.2 mph - N/A   Clear
10:15 AM 14.0 °F 3.9 °F 8.6 °F 79% 30.31 in 10.0 mi SW 6.9 mph - N/A   Clear
10:35 AM 15.8 °F 6.1 °F 8.6 °F 73% 30.30 in 10.0 mi SW 6.9 mph - N/A   Clear
10:55 AM 17.6 °F 9.3 °F 10.4 °F 73% 30.29 in 10.0 mi SW 5.8 mph - N/A   Clear
11:15 AM 19.4 °F 14.3 °F 10.4 °F 68% 30.29 in 10.0 mi SW 3.5 mph - N/A   Clear
11:35 AM 21.2 °F 10.9 °F 12.2 °F 68% 30.28 in 10.0 mi SSW 9.2 mph - N/A   Clear
11:55 AM 24.8 °F 19.1 °F 14.0 °F 64% 30.27 in 10.0 mi WSW 4.6 mph - N/A   Clear
12:15 PM 24.8 °F 16.9 °F 14.0 °F 64% 30.26 in 10.0 mi SW 6.9 mph - N/A   Clear
12:35 PM 24.8 °F 16.9 °F 15.8 °F 69% 30.25 in 10.0 mi SW 6.9 mph - N/A   Clear
12:55 PM 26.6 °F 19.1 °F 15.8 °F 64% 30.24 in 10.0 mi SW 6.9 mph - N/A   Clear
1:15 PM 28.4 °F 21.2 °F 15.8 °F 59% 30.23 in 10.0 mi SW 6.9 mph - N/A   Clear
1:35 PM 28.4 °F 23.3 °F 17.6 °F 64% 30.22 in 10.0 mi SW 4.6 mph - N/A   Clear
1:55 PM 30.2 °F 23.4 °F 19.4 °F 64% 30.21 in 10.0 mi South 6.9 mph - N/A   Clear
2:15 PM 30.2 °F 21.3 °F 19.4 °F 64% 30.20 in 10.0 mi South 10.4 mph - N/A   Clear
2:35 PM 32.0 °F 22.5 °F 19.4 °F 60% 30.20 in 10.0 mi South 12.7 mph - N/A   Clear
2:55 PM 33.8 °F 26.4 °F 21.2 °F 60% 30.19 in 10.0 mi SSW 9.2 mph - N/A   Clear
3:15 PM 33.8 °F 24.3 °F 23.0 °F 65% 30.19 in 10.0 mi South 13.8 mph - N/A   Clear
3:35 PM 33.8 °F 25.3 °F 23.0 °F 65% 30.19 in 10.0 mi SSW 11.5 mph - N/A   Clear
3:55 PM 33.8 °F 25.8 °F 23.0 °F 65% 30.20 in 10.0 mi SSW 10.4 mph - N/A   Clear
4:15 PM 33.8 °F 24.8 °F 21.2 °F 60% 30.19 in 10.0 mi SSW 12.7 mph - N/A   Clear
4:35 PM 33.8 °F 24.8 °F 21.2 °F 60% 30.19 in 10.0 mi SSW 12.7 mph - N/A   Clear
4:55 PM 32.0 °F 23.0 °F 21.2 °F 64% 30.19 in 10.0 mi SSW 11.5 mph - N/A   Clear
5:15 PM 32.0 °F 23.6 °F 21.2 °F 64% 30.18 in 10.0 mi SSW 10.4 mph - N/A   Clear
5:35 PM 30.2 °F 21.9 °F 21.2 °F 69% 30.18 in 10.0 mi SSW 9.2 mph - N/A   Clear
5:55 PM 30.2 °F 22.6 °F 21.2 °F 69% 30.18 in 10.0 mi SW 8.1 mph - N/A   Clear
6:15 PM 30.2 °F 22.6 °F 19.4 °F 64% 30.18 in 10.0 mi SSW 8.1 mph - N/A   Clear
6:35 PM 28.4 °F 19.1 °F 19.4 °F 69% 30.18 in 10.0 mi SSW 10.4 mph - N/A   Clear
6:55 PM 28.4 °F 19.7 °F 19.4 °F 69% 30.18 in 10.0 mi SSW 9.2 mph - N/A   Clear
7:15 PM 28.4 °F 20.4 °F 19.4 °F 69% 30.18 in 10.0 mi SSW 8.1 mph - N/A   Partly Cloudy
7:35 PM 26.6 °F 18.2 °F 17.6 °F 69% 30.17 in 10.0 mi SSW 8.1 mph - N/A   Clear
7:55 PM 26.6 °F 19.1 °F 17.6 °F 69% 30.17 in 10.0 mi SSW 6.9 mph - N/A   Clear
8:15 PM 23.0 °F 15.8 °F 15.8 °F 74% 30.17 in 10.0 mi SSW 5.8 mph - N/A   Partly Cloudy
8:35 PM 24.8 °F 15.3 °F 19.4 °F 80% 30.16 in 10.0 mi SSW 9.2 mph - N/A   Clear
8:55 PM 28.4 °F 19.7 °F 21.2 °F 74% 30.16 in 10.0 mi SSW 9.2 mph - N/A   Clear
9:15 PM 28.4 °F 18.5 °F 21.2 °F 74% 30.16 in 10.0 mi SSW 11.5 mph - N/A   Clear
9:35 PM 26.6 °F 17.5 °F 19.4 °F 74% 30.16 in 10.0 mi SSW 9.2 mph - N/A   Clear
9:55 PM 28.4 °F 20.4 °F 21.2 °F 74% 30.16 in 10.0 mi SSW 8.1 mph - N/A   Clear
10:15 PM 28.4 °F 19.7 °F 21.2 °F 74% 30.16 in 10.0 mi SSW 9.2 mph - N/A   Clear
10:35 PM 26.6 °F 19.1 °F 19.4 °F 74% 30.16 in 10.0 mi SW 6.9 mph - N/A   Clear
10:55 PM 28.4 °F 19.1 °F 21.2 °F 74% 30.15 in 10.0 mi SSW 10.4 mph - N/A   Mostly Cloudy
11:15 PM 28.4 °F 18.5 °F 21.2 °F 74% 30.14 in 10.0 mi SSW 11.5 mph - N/A   Overcast
11:35 PM 28.4 °F 19.7 °F 23.0 °F 80% 30.14 in 10.0 mi South 9.2 mph - N/A   Overcast
11:55 PM 30.2 °F 20.8 °F 24.8 °F 80% 30.13 in 10.0 mi SSW 11.5 mph - N/A   Overcast